Time,TemperatureF,DewpointF,PressureIn,WindDirection,WindDirectionDegrees,WindSpeedMPH,WindSpeedGustMPH,Humidity,HourlyPrecipIn,Conditions,Clouds,dailyrainin,SoftwareType,DateUTC
2013-04-10 00:00:00,64.4,64.4,30.18,SSW,200,6.9,6.9,100,0.00,CLR,,0.00,WeatherDisplay:10.37,2013-04-10 04:00:00,
2013-04-10 00:05:00,64.4,64.4,30.17,South,190,8.1,8.1,100,0.00,CLR,,0.00,WeatherDisplay:10.37,2013-04-10 04:05:00,
2013-04-10 00:10:00,64.4,64.4,30.17,South,190,8.1,8.1,100,0.00,CLR,,0.00,WeatherDisplay:10.37,2013-04-10 04:10:00,
2013-04-10 00:15:00,64.4,64.4,30.17,South,190,8.1,8.1,100,0.00,CLR,,0.00,WeatherDisplay:10.37,2013-04-10 04:15:00,
2013-04-10 00:20:00,64.4,64.4,30.17,South,190,8.1,8.1,100,0.00,CLR,,0.00,WeatherDisplay:10.37,2013-04-10 04:20:00,
2013-04-10 00:25:00,64.4,64.4,30.17,SSW,200,6.9,6.9,100,0.00,CLR,,0.00,WeatherDisplay:10.37,2013-04-10 04:25:00,
2013-04-10 00:30:00,64.4,64.4,30.17,SSW,200,6.9,6.9,100,0.00,CLR,,0.00,WeatherDisplay:10.37,2013-04-10 04:30:00,
2013-04-10 00:35:00,64.4,64.4,30.17,SSW,200,6.9,6.9,100,0.00,CLR,,0.00,WeatherDisplay:10.37,2013-04-10 04:35:00,
2013-04-10 00:40:00,64.4,64.4,30.17,SSW,200,6.9,6.9,100,0.00,CLR,,0.00,WeatherDisplay:10.37,2013-04-10 04:40:00,
2013-04-10 00:45:00,62.6,62.6,30.17,SSW,200,5.8,5.8,100,0.00,CLR,,0.00,WeatherDisplay:10.37,2013-04-10 04:45:00,
2013-04-10 00:50:00,62.6,62.6,30.17,SSW,200,5.8,5.8,100,0.00,CLR,,0.00,WeatherDisplay:10.37,2013-04-10 04:50:00,
2013-04-10 00:55:00,62.6,62.6,30.17,SSW,200,5.8,5.8,100,0.00,CLR,,0.00,WeatherDisplay:10.37,2013-04-10 04:55:00,
2013-04-10 01:00:00,62.6,62.6,30.17,SSW,200,5.8,5.8,100,0.00,CLR,,0.00,WeatherDisplay:10.37,2013-04-10 05:00:00,
2013-04-10 01:05:00,62.6,62.6,30.17,SSW,200,8.1,8.1,100,0.00,CLR,,0.00,WeatherDisplay:10.37,2013-04-10 05:05:00,
2013-04-10 01:10:00,62.6,62.6,30.17,SSW,200,8.1,8.1,100,0.00,CLR,,0.00,WeatherDisplay:10.37,2013-04-10 05:10:00,
2013-04-10 01:15:00,62.6,62.6,30.17,SSW,200,8.1,8.1,100,0.00,CLR,,0.00,WeatherDisplay:10.37,2013-04-10 05:15:00,
2013-04-10 01:20:00,62.6,62.6,30.17,SSW,200,8.1,8.1,100,0.00,CLR,,0.00,WeatherDisplay:10.37,2013-04-10 05:20:00,
2013-04-10 01:25:00,64.4,64.4,30.16,SSW,200,8.1,8.1,100,0.00,CLR,,0.00,WeatherDisplay:10.37,2013-04-10 05:25:00,
2013-04-10 01:31:00,64.4,64.4,30.16,SSW,200,8.1,8.1,100,0.00,CLR,,0.00,WeatherDisplay:10.37,2013-04-10 05:31:00,
2013-04-10 01:36:00,64.4,64.4,30.16,SSW,200,8.1,8.1,100,0.00,CLR,,0.00,WeatherDisplay:10.37,2013-04-10 05:36:00,
2013-04-10 01:41:00,62.6,62.6,30.16,SSW,200,8.1,8.1,100,0.00,CLR,,0.00,WeatherDisplay:10.37,2013-04-10 05:41:00,
2013-04-10 01:46:00,62.6,62.6,30.16,SSW,200,8.1,8.1,100,0.00,CLR,,0.00,WeatherDisplay:10.37,2013-04-10 05:46:00,
2013-04-10 01:51:00,62.6,62.6,30.16,SSW,200,8.1,8.1,100,0.00,CLR,,0.00,WeatherDisplay:10.37,2013-04-10 05:51:00,
2013-04-10 01:56:00,62.6,62.6,30.16,SSW,200,8.1,8.1,100,0.00,CLR,,0.00,WeatherDisplay:10.37,2013-04-10 05:56:00,
2013-04-10 02:01:00,62.6,62.6,30.15,SSW,200,8.1,8.1,100,0.00,CLR,,0.00,WeatherDisplay:10.37,2013-04-10 06:01:00,
2013-04-10 02:06:00,62.6,62.6,30.15,SSW,200,6.9,6.9,100,0.00,CLR,,0.00,WeatherDisplay:10.37,2013-04-10 06:06:00,
2013-04-10 02:11:00,62.6,62.6,30.15,SSW,200,6.9,6.9,100,0.00,CLR,,0.00,WeatherDisplay:10.37,2013-04-10 06:11:00,
2013-04-10 02:16:00,62.6,62.6,30.15,SSW,200,6.9,6.9,100,0.00,CLR,,0.00,WeatherDisplay:10.37,2013-04-10 06:16:00,
2013-04-10 02:21:00,62.6,62.6,30.14,SSW,210,6.9,6.9,100,0.00,CLR,,0.00,WeatherDisplay:10.37,2013-04-10 06:21:00,
2013-04-10 02:26:00,62.6,62.6,30.14,SSW,210,6.9,6.9,100,0.00,CLR,,0.00,WeatherDisplay:10.37,2013-04-10 06:26:00,
2013-04-10 02:31:00,62.6,62.6,30.14,SSW,210,6.9,6.9,100,0.00,CLR,,0.00,WeatherDisplay:10.37,2013-04-10 06:31:00,
2013-04-10 02:36:00,62.6,62.6,30.14,SSW,210,6.9,6.9,100,0.00,CLR,,0.00,WeatherDisplay:10.37,2013-04-10 06:36:00,
2013-04-10 02:41:00,62.6,62.6,30.13,SSW,210,6.9,6.9,100,0.00,CLR,,0.00,WeatherDisplay:10.37,2013-04-10 06:41:00,
2013-04-10 02:46:00,62.6,62.6,30.13,SSW,210,6.9,6.9,100,0.00,CLR,,0.00,WeatherDisplay:10.37,2013-04-10 06:46:00,
2013-04-10 02:51:00,62.6,62.6,30.13,SSW,210,6.9,6.9,100,0.00,CLR,,0.00,WeatherDisplay:10.37,2013-04-10 06:51:00,
2013-04-10 02:56:00,62.6,62.6,30.13,SSW,210,6.9,6.9,100,0.00,CLR,,0.00,WeatherDisplay:10.37,2013-04-10 06:56:00,
2013-04-10 03:01:00,62.6,62.6,30.13,SW,220,6.9,6.9,100,0.00,CLR,,0.00,WeatherDisplay:10.37,2013-04-10 07:01:00,
2013-04-10 03:06:00,62.6,62.6,30.13,SW,220,6.9,6.9,100,0.00,CLR,,0.00,WeatherDisplay:10.37,2013-04-10 07:06:00,
2013-04-10 03:11:00,62.6,62.6,30.13,SW,220,6.9,6.9,100,0.00,CLR,,0.00,WeatherDisplay:10.37,2013-04-10 07:11:00,
2013-04-10 03:16:00,62.6,62.6,30.13,SW,220,6.9,6.9,100,0.00,CLR,,0.00,WeatherDisplay:10.37,2013-04-10 07:16:00,
2013-04-10 03:21:00,62.6,62.6,30.12,SSW,210,6.9,6.9,100,0.00,CLR,,0.00,WeatherDisplay:10.37,2013-04-10 07:21:00,
2013-04-10 03:26:00,62.6,62.6,30.12,SSW,210,6.9,6.9,100,0.00,CLR,,0.00,WeatherDisplay:10.37,2013-04-10 07:26:00,
2013-04-10 03:31:00,62.6,62.6,30.12,SSW,210,6.9,6.9,100,0.00,CLR,,0.00,WeatherDisplay:10.37,2013-04-10 07:31:00,
2013-04-10 03:36:00,62.6,62.6,30.12,SSW,210,6.9,6.9,100,0.00,CLR,,0.00,WeatherDisplay:10.37,2013-04-10 07:36:00,
2013-04-10 03:41:00,62.6,62.6,30.12,SSW,210,6.9,6.9,100,0.00,CLR,,0.00,WeatherDisplay:10.37,2013-04-10 07:41:00,
2013-04-10 03:46:00,62.6,62.6,30.12,SSW,210,6.9,6.9,100,0.00,CLR,,0.00,WeatherDisplay:10.37,2013-04-10 07:46:00,
2013-04-10 03:51:00,62.6,62.6,30.12,SSW,210,6.9,6.9,100,0.00,CLR,,0.00,WeatherDisplay:10.37,2013-04-10 07:51:00,
2013-04-10 03:56:00,62.6,62.6,30.12,SSW,210,6.9,6.9,100,0.00,CLR,,0.00,WeatherDisplay:10.37,2013-04-10 07:56:00,
2013-04-10 04:01:00,60.8,60.8,30.12,SW,230,6.9,6.9,100,0.00,CLR,,0.00,WeatherDisplay:10.37,2013-04-10 08:01:00,
2013-04-10 04:06:00,60.8,60.8,30.12,SW,230,5.8,5.8,100,0.00,CLR,,0.00,WeatherDisplay:10.37,2013-04-10 08:06:00,
2013-04-10 04:11:00,60.8,60.8,30.12,SW,230,5.8,5.8,100,0.00,CLR,,0.00,WeatherDisplay:10.37,2013-04-10 08:11:00,
2013-04-10 04:16:00,60.8,60.8,30.12,SW,230,5.8,5.8,100,0.00,CLR,,0.00,WeatherDisplay:10.37,2013-04-10 08:16:00,
2013-04-10 04:21:00,60.8,60.8,30.13,WSW,240,5.8,5.8,100,0.00,CLR,,0.00,WeatherDisplay:10.37,2013-04-10 08:21:00,
2013-04-10 04:26:00,60.8,60.8,30.13,WSW,240,4.6,4.6,100,0.00,CLR,,0.00,WeatherDisplay:10.37,2013-04-10 08:26:00,
2013-04-10 04:31:00,60.8,60.8,30.13,WSW,240,4.6,4.6,100,0.00,CLR,,0.00,WeatherDisplay:10.37,2013-04-10 08:31:00,
2013-04-10 04:36:00,60.8,60.8,30.13,WSW,240,4.6,4.6,100,0.00,CLR,,0.00,WeatherDisplay:10.37,2013-04-10 08:36:00,
2013-04-10 04:41:00,60.8,60.8,30.13,WSW,240,4.6,0.0,100,0.00,CLR,,0.00,WeatherDisplay:10.37,2013-04-10 08:41:00,
2013-04-10 04:46:00,60.8,60.8,30.13,WSW,240,0.0,0.0,100,0.00,CLR,,0.00,WeatherDisplay:10.37,2013-04-10 08:46:00,
2013-04-10 04:51:00,60.8,60.8,30.13,WSW,240,0.0,0.0,100,0.00,CLR,,0.00,WeatherDisplay:10.37,2013-04-10 08:51:00,
2013-04-10 04:56:00,60.8,60.8,30.13,WSW,240,0.0,0.0,100,0.00,CLR,,0.00,WeatherDisplay:10.37,2013-04-10 08:56:00,
2013-04-10 05:01:00,60.8,60.8,30.13,WSW,240,0.0,0.0,100,0.00,CLR,,0.00,WeatherDisplay:10.37,2013-04-10 09:01:00,
2013-04-10 05:06:00,60.8,60.8,30.13,WSW,240,0.0,0.0,100,0.00,CLR,,0.00,WeatherDisplay:10.37,2013-04-10 09:06:00,
2013-04-10 05:11:00,59.0,59.0,30.13,WSW,240,0.0,0.0,100,0.00,CLR,,0.00,WeatherDisplay:10.37,2013-04-10 09:11:00,
2013-04-10 05:16:00,59.0,59.0,30.13,WSW,240,0.0,0.0,100,0.00,CLR,,0.00,WeatherDisplay:10.37,2013-04-10 09:16:00,
2013-04-10 05:21:00,59.0,59.0,30.13,WSW,240,0.0,0.0,100,0.00,CLR,,0.00,WeatherDisplay:10.37,2013-04-10 09:21:00,
2013-04-10 05:26:00,59.0,59.0,30.13,WSW,240,0.0,0.0,100,0.00,CLR,,0.00,WeatherDisplay:10.37,2013-04-10 09:26:00,
2013-04-10 05:31:00,59.0,59.0,30.13,WSW,240,0.0,0.0,100,0.00,CLR,,0.00,WeatherDisplay:10.37,2013-04-10 09:31:00,
2013-04-10 05:36:00,59.0,59.0,30.13,WSW,240,0.0,0.0,100,0.00,CLR,,0.00,WeatherDisplay:10.37,2013-04-10 09:36:00,
2013-04-10 05:41:00,55.4,55.4,30.13,SSW,200,3.5,3.5,100,0.00,CLR,,0.00,WeatherDisplay:10.37,2013-04-10 09:41:00,
2013-04-10 05:46:00,55.4,55.4,30.13,SSW,200,3.5,3.5,100,0.00,CLR,,0.00,WeatherDisplay:10.37,2013-04-10 09:46:00,
2013-04-10 05:51:00,55.4,55.4,30.13,SSW,200,3.5,3.5,100,0.00,CLR,,0.00,WeatherDisplay:10.37,2013-04-10 09:51:00,
2013-04-10 05:56:00,55.4,55.4,30.13,SSW,200,3.5,3.5,100,0.00,CLR,,0.00,WeatherDisplay:10.37,2013-04-10 09:56:00,
2013-04-10 06:01:00,55.4,55.4,30.13,SSW,200,3.5,3.5,100,0.00,CLR,,0.00,WeatherDisplay:10.37,2013-04-10 10:01:00,
2013-04-10 06:06:00,55.4,55.4,30.13,SSW,200,3.5,3.5,100,0.00,CLR,,0.00,WeatherDisplay:10.37,2013-04-10 10:06:00,
2013-04-10 06:11:00,59.0,59.0,30.14,WSW,240,3.5,3.5,100,0.00,CLR,,0.00,WeatherDisplay:10.37,2013-04-10 10:11:00,
2013-04-10 06:16:00,59.0,59.0,30.14,WSW,240,3.5,3.5,100,0.00,CLR,,0.00,WeatherDisplay:10.37,2013-04-10 10:16:00,
2013-04-10 06:21:00,59.0,59.0,30.14,WSW,240,3.5,0.0,100,0.00,CLR,,0.00,WeatherDisplay:10.37,2013-04-10 10:21:00,
2013-04-10 06:26:00,59.0,59.0,30.14,WSW,240,0.0,0.0,100,0.00,CLR,,0.00,WeatherDisplay:10.37,2013-04-10 10:26:00,
2013-04-10 06:31:00,59.0,59.0,30.14,WSW,240,0.0,0.0,100,0.00,CLR,,0.00,WeatherDisplay:10.37,2013-04-10 10:31:00,
2013-04-10 06:36:00,59.0,59.0,30.14,WSW,240,0.0,0.0,100,0.00,CLR,,0.00,WeatherDisplay:10.37,2013-04-10 10:36:00,
2013-04-10 06:41:00,60.8,60.8,30.15,WSW,250,3.5,3.5,100,0.00,CLR,,0.00,WeatherDisplay:10.37,2013-04-10 10:41:00,
2013-04-10 06:46:00,60.8,60.8,30.15,WSW,250,3.5,3.5,100,0.00,CLR,,0.00,WeatherDisplay:10.37,2013-04-10 10:46:00,
2013-04-10 06:51:00,60.8,60.8,30.15,WSW,250,3.5,3.5,100,0.00,CLR,,0.00,WeatherDisplay:10.37,2013-04-10 10:51:00,
2013-04-10 06:56:00,60.8,60.8,30.15,WSW,250,3.5,3.5,100,0.00,CLR,,0.00,WeatherDisplay:10.37,2013-04-10 10:56:00,
2013-04-10 07:01:00,59.0,59.0,30.15,WSW,250,3.5,0.0,100,0.00,CLR,,0.00,WeatherDisplay:10.37,2013-04-10 11:01:00,
2013-04-10 07:06:00,59.0,59.0,30.15,WSW,250,0.0,0.0,100,0.00,CLR,,0.00,WeatherDisplay:10.37,2013-04-10 11:06:00,
2013-04-10 07:11:00,59.0,59.0,30.15,WSW,250,0.0,0.0,100,0.00,CLR,,0.00,WeatherDisplay:10.37,2013-04-10 11:11:00,
2013-04-10 07:16:00,59.0,59.0,30.15,WSW,250,0.0,0.0,100,0.00,CLR,,0.00,WeatherDisplay:10.37,2013-04-10 11:16:00,
2013-04-10 07:21:00,57.2,57.2,30.16,WSW,250,0.0,0.0,100,0.00,CLR,,0.00,WeatherDisplay:10.37,2013-04-10 11:21:00,
2013-04-10 07:26:00,57.2,57.2,30.16,WSW,250,0.0,0.0,100,0.00,CLR,,0.00,WeatherDisplay:10.37,2013-04-10 11:26:00,
2013-04-10 07:31:00,57.2,57.2,30.16,WSW,250,0.0,0.0,100,0.00,CLR,,0.00,WeatherDisplay:10.37,2013-04-10 11:31:00,
2013-04-10 07:36:00,57.2,57.2,30.16,WSW,250,0.0,0.0,100,0.00,CLR,,0.00,WeatherDisplay:10.37,2013-04-10 11:36:00,
2013-04-10 07:41:00,59.0,59.0,30.16,WSW,250,0.0,0.0,100,0.00,CLR,,0.00,WeatherDisplay:10.37,2013-04-10 11:41:00,
2013-04-10 07:46:00,59.0,59.0,30.16,WSW,250,0.0,0.0,100,0.00,CLR,,0.00,WeatherDisplay:10.37,2013-04-10 11:46:00,
2013-04-10 07:51:00,59.0,59.0,30.16,WSW,250,0.0,0.0,100,0.00,CLR,,0.00,WeatherDisplay:10.37,2013-04-10 11:51:00,
2013-04-10 07:56:00,59.0,59.0,30.16,WSW,250,0.0,0.0,100,0.00,CLR,,0.00,WeatherDisplay:10.37,2013-04-10 11:56:00,
2013-04-10 08:01:00,59.0,59.0,30.17,WSW,250,0.0,0.0,100,0.00,CLR,,0.00,WeatherDisplay:10.37,2013-04-10 12:01:00,
2013-04-10 08:06:00,59.0,59.0,30.17,WSW,250,0.0,0.0,100,0.00,CLR,,0.00,WeatherDisplay:10.37,2013-04-10 12:06:00,
2013-04-10 08:11:00,59.0,59.0,30.17,WSW,250,0.0,0.0,100,0.00,CLR,,0.00,WeatherDisplay:10.37,2013-04-10 12:11:00,
2013-04-10 08:16:00,59.0,59.0,30.17,WSW,250,0.0,0.0,100,0.00,CLR,,0.00,WeatherDisplay:10.37,2013-04-10 12:16:00,
2013-04-10 08:21:00,60.8,60.8,30.17,WSW,240,4.6,4.6,100,0.00,CLR,,0.00,WeatherDisplay:10.37,2013-04-10 12:21:00,
2013-04-10 08:26:00,60.8,60.8,30.17,WSW,240,4.6,4.6,100,0.00,CLR,,0.00,WeatherDisplay:10.37,2013-04-10 12:26:00,
2013-04-10 08:31:00,60.8,60.8,30.17,WSW,240,4.6,4.6,100,0.00,CLR,,0.00,WeatherDisplay:10.37,2013-04-10 12:31:00,
2013-04-10 08:36:00,60.8,60.8,30.17,WSW,240,4.6,4.6,100,0.00,CLR,,0.00,WeatherDisplay:10.37,2013-04-10 12:36:00,
2013-04-10 08:41:00,62.6,62.6,30.18,West,260,4.6,4.6,100,0.00,CLR,,0.00,WeatherDisplay:10.37,2013-04-10 12:41:00,
2013-04-10 08:46:00,62.6,62.6,30.18,West,260,3.5,3.5,100,0.00,CLR,,0.00,WeatherDisplay:10.37,2013-04-10 12:46:00,
2013-04-10 08:51:00,62.6,62.6,30.18,West,260,3.5,3.5,100,0.00,CLR,,0.00,WeatherDisplay:10.37,2013-04-10 12:51:00,
2013-04-10 08:56:00,62.6,62.6,30.18,West,260,3.5,3.5,100,0.00,CLR,,0.00,WeatherDisplay:10.37,2013-04-10 12:56:00,
2013-04-10 09:01:00,64.4,64.4,30.18,WSW,250,6.9,6.9,100,0.00,CLR,,0.00,WeatherDisplay:10.37,2013-04-10 13:01:00,
2013-04-10 09:06:00,64.4,64.4,30.18,WSW,250,6.9,6.9,100,0.00,CLR,,0.00,WeatherDisplay:10.37,2013-04-10 13:06:00,
2013-04-10 09:11:00,64.4,64.4,30.18,WSW,250,6.9,6.9,100,0.00,CLR,,0.00,WeatherDisplay:10.37,2013-04-10 13:11:00,
2013-04-10 09:16:00,64.4,64.4,30.18,WSW,250,6.9,6.9,100,0.00,CLR,,0.00,WeatherDisplay:10.37,2013-04-10 13:16:00,
2013-04-10 09:21:00,68.0,65.9,30.19,WSW,240,6.9,6.9,93,0.00,CLR,,0.00,WeatherDisplay:10.37,2013-04-10 13:21:00,
2013-04-10 09:26:00,68.0,65.9,30.19,WSW,240,6.9,6.9,93,0.00,CLR,,0.00,WeatherDisplay:10.37,2013-04-10 13:26:00,
2013-04-10 09:31:00,68.0,65.9,30.19,WSW,240,6.9,6.9,93,0.00,CLR,,0.00,WeatherDisplay:10.37,2013-04-10 13:31:00,
2013-04-10 09:36:00,68.0,65.9,30.19,WSW,240,6.9,6.9,93,0.00,CLR,,0.00,WeatherDisplay:10.37,2013-04-10 13:36:00,
2013-04-10 09:41:00,69.8,64.1,30.19,WSW,240,6.9,6.9,82,0.00,CLR,,0.00,WeatherDisplay:10.37,2013-04-10 13:41:00,
2013-04-10 09:46:00,69.8,64.1,30.19,WSW,240,6.9,6.9,82,0.00,CLR,,0.00,WeatherDisplay:10.37,2013-04-10 13:46:00,
2013-04-10 09:51:00,69.8,64.1,30.19,WSW,240,6.9,6.9,82,0.00,CLR,,0.00,WeatherDisplay:10.37,2013-04-10 13:51:00,
2013-04-10 09:56:00,69.8,64.1,30.19,WSW,240,6.9,6.9,82,0.00,CLR,,0.00,WeatherDisplay:10.37,2013-04-10 13:56:00,
2013-04-10 10:01:00,71.6,64.4,30.19,SW,220,6.9,6.9,78,0.00,CLR,,0.00,WeatherDisplay:10.37,2013-04-10 14:01:00,
2013-04-10 10:06:00,71.6,64.4,30.19,SW,220,6.9,6.9,78,0.00,CLR,,0.00,WeatherDisplay:10.37,2013-04-10 14:06:00,
2013-04-10 10:11:00,71.6,64.4,30.19,SW,220,6.9,6.9,78,0.00,CLR,,0.00,WeatherDisplay:10.37,2013-04-10 14:11:00,
2013-04-10 10:16:00,71.6,64.4,30.19,SW,220,6.9,6.9,78,0.00,CLR,,0.00,WeatherDisplay:10.37,2013-04-10 14:16:00,
2013-04-10 10:21:00,73.4,64.2,30.19,SSW,210,9.2,9.2,73,0.00,SCT,,0.00,WeatherDisplay:10.37,2013-04-10 14:21:00,
2013-04-10 10:26:00,73.4,64.2,30.19,SSW,210,9.2,9.2,73,0.00,SCT,,0.00,WeatherDisplay:10.37,2013-04-10 14:26:00,
2013-04-10 10:31:00,73.4,64.2,30.19,SSW,210,9.2,9.2,73,0.00,SCT,,0.00,WeatherDisplay:10.37,2013-04-10 14:31:00,
2013-04-10 10:36:00,73.4,64.2,30.19,SSW,210,9.2,9.2,73,0.00,SCT,,0.00,WeatherDisplay:10.37,2013-04-10 14:36:00,
2013-04-10 10:41:00,73.4,62.2,30.19,SW,220,10.4,10.4,68,0.00,SCT,,0.00,WeatherDisplay:10.37,2013-04-10 14:41:00,
2013-04-10 10:46:00,73.4,62.2,30.19,SW,220,10.4,10.4,68,0.00,SCT,,0.00,WeatherDisplay:10.37,2013-04-10 14:46:00,
2013-04-10 10:51:00,73.4,62.2,30.19,SW,220,10.4,10.4,68,0.00,SCT,,0.00,WeatherDisplay:10.37,2013-04-10 14:51:00,
2013-04-10 10:56:00,73.4,62.2,30.19,SW,220,10.4,10.4,68,0.00,SCT,,0.00,WeatherDisplay:10.37,2013-04-10 14:56:00,
2013-04-10 11:01:00,75.2,62.2,30.19,SW,230,10.4,10.4,64,0.00,SCT,,0.00,WeatherDisplay:10.37,2013-04-10 15:01:00,
2013-04-10 11:06:00,75.2,62.2,30.19,SW,230,10.4,10.4,64,0.00,SCT,,0.00,WeatherDisplay:10.37,2013-04-10 15:06:00,
2013-04-10 11:11:00,75.2,62.2,30.19,SW,230,10.4,10.4,64,0.00,SCT,,0.00,WeatherDisplay:10.37,2013-04-10 15:11:00,
2013-04-10 11:16:00,75.2,62.2,30.19,SW,230,10.4,10.4,64,0.00,SCT,,0.00,WeatherDisplay:10.37,2013-04-10 15:16:00,
2013-04-10 11:21:00,75.2,62.2,30.19,SW,230,10.4,10.4,64,0.00,SCT,,0.00,WeatherDisplay:10.37,2013-04-10 15:21:00,
2013-04-10 11:26:00,75.2,62.2,30.19,SW,230,8.1,8.1,64,0.00,SCT,,0.00,WeatherDisplay:10.37,2013-04-10 15:26:00,
2013-04-10 11:31:00,75.2,62.2,30.19,SW,230,8.1,8.1,64,0.00,SCT,,0.00,WeatherDisplay:10.37,2013-04-10 15:31:00,
2013-04-10 11:36:00,75.2,62.2,30.19,SW,230,8.1,8.1,64,0.00,SCT,,0.00,WeatherDisplay:10.37,2013-04-10 15:36:00,
2013-04-10 11:41:00,77.0,62.5,30.19,South,180,9.2,9.2,61,0.00,SCT,,0.00,WeatherDisplay:10.37,2013-04-10 15:41:00,
2013-04-10 11:46:00,77.0,62.5,30.19,South,180,9.2,9.2,61,0.00,SCT,,0.00,WeatherDisplay:10.37,2013-04-10 15:46:00,
2013-04-10 11:51:00,77.0,62.5,30.19,South,180,9.2,9.2,61,0.00,SCT,,0.00,WeatherDisplay:10.37,2013-04-10 15:51:00,
2013-04-10 11:56:00,77.0,62.5,30.19,South,180,9.2,9.2,61,0.00,SCT,,0.00,WeatherDisplay:10.37,2013-04-10 15:56:00,
2013-04-10 12:01:00,77.0,60.6,30.19,South,190,9.2,9.2,57,0.00,BKN,,0.00,WeatherDisplay:10.37,2013-04-10 16:01:00,
2013-04-10 12:06:00,77.0,60.6,30.19,South,190,8.1,8.1,57,0.00,BKN,,0.00,WeatherDisplay:10.37,2013-04-10 16:06:00,
2013-04-10 12:11:00,77.0,60.6,30.19,South,190,8.1,8.1,57,0.00,BKN,,0.00,WeatherDisplay:10.37,2013-04-10 16:11:00,
2013-04-10 12:16:00,77.0,60.6,30.19,South,190,8.1,8.1,57,0.00,BKN,,0.00,WeatherDisplay:10.37,2013-04-10 16:16:00,
2013-04-10 12:21:00,77.0,60.6,30.18,SW,230,9.2,9.2,57,0.00,BKN,,0.00,WeatherDisplay:10.37,2013-04-10 16:21:00,
2013-04-10 12:26:00,77.0,60.6,30.18,SW,230,9.2,9.2,57,0.00,BKN,,0.00,WeatherDisplay:10.37,2013-04-10 16:26:00,
2013-04-10 12:31:00,77.0,60.6,30.18,SW,230,9.2,9.2,57,0.00,BKN,,0.00,WeatherDisplay:10.37,2013-04-10 16:31:00,
2013-04-10 12:36:00,77.0,60.6,30.18,SW,230,9.2,9.2,57,0.00,BKN,,0.00,WeatherDisplay:10.37,2013-04-10 16:36:00,
2013-04-10 12:41:00,77.0,60.6,30.18,SW,230,9.2,9.2,57,0.00,BKN,,0.00,WeatherDisplay:10.37,2013-04-10 16:41:00,
2013-04-10 12:46:00,77.0,60.6,30.18,SW,230,9.2,9.2,57,0.00,BKN,,0.00,WeatherDisplay:10.37,2013-04-10 16:46:00,
2013-04-10 12:51:00,78.8,62.3,30.17,South,190,10.4,10.4,57,0.00,SCT,,0.00,WeatherDisplay:10.37,2013-04-10 16:51:00,
2013-04-10 12:56:00,78.8,62.3,30.17,South,190,10.4,10.4,57,0.00,SCT,,0.00,WeatherDisplay:10.37,2013-04-10 16:56:00,
2013-04-10 13:01:00,77.0,62.5,30.16,SSW,200,18.4,18.4,61,0.00,SCT,,0.00,WeatherDisplay:10.37,2013-04-10 17:01:00,
2013-04-10 13:06:00,77.0,62.5,30.16,SSW,200,18.4,18.4,61,0.00,SCT,,0.00,WeatherDisplay:10.37,2013-04-10 17:06:00,
2013-04-10 13:11:00,77.0,62.5,30.16,SSW,200,18.4,18.4,61,0.00,SCT,,0.00,WeatherDisplay:10.37,2013-04-10 17:11:00,
2013-04-10 13:16:00,77.0,62.5,30.16,SSW,200,18.4,18.4,61,0.00,SCT,,0.00,WeatherDisplay:10.37,2013-04-10 17:16:00,
2013-04-10 13:21:00,78.8,62.3,30.16,South,190,20.7,20.7,57,0.00,SCT,,0.00,WeatherDisplay:10.37,2013-04-10 17:21:00,
2013-04-10 13:26:00,78.8,62.3,30.16,South,190,20.7,20.7,57,0.00,SCT,,0.00,WeatherDisplay:10.37,2013-04-10 17:26:00,
2013-04-10 13:31:00,78.8,62.3,30.16,South,190,20.7,20.7,57,0.00,SCT,,0.00,WeatherDisplay:10.37,2013-04-10 17:31:00,
2013-04-10 13:36:00,78.8,62.3,30.16,South,190,20.7,20.7,57,0.00,SCT,,0.00,WeatherDisplay:10.37,2013-04-10 17:36:00,
2013-04-10 13:41:00,78.8,62.3,30.16,South,190,20.7,20.7,57,0.00,SCT,,0.00,WeatherDisplay:10.37,2013-04-10 17:41:00,
2013-04-10 13:46:00,78.8,62.3,30.15,SW,220,9.2,9.2,57,0.00,SCT,,0.00,WeatherDisplay:10.37,2013-04-10 17:46:00,
2013-04-10 13:51:00,78.8,62.3,30.15,SW,220,9.2,9.2,57,0.00,SCT,,0.00,WeatherDisplay:10.37,2013-04-10 17:51:00,
2013-04-10 13:56:00,78.8,62.3,30.15,SW,220,9.2,9.2,57,0.00,SCT,,0.00,WeatherDisplay:10.37,2013-04-10 17:56:00,
2013-04-10 14:01:00,78.8,62.3,30.15,SW,220,9.2,9.2,57,0.00,SCT,,0.00,WeatherDisplay:10.37,2013-04-10 18:01:00,
2013-04-10 14:06:00,78.8,62.3,30.15,SW,220,9.2,9.2,57,0.00,SCT,,0.00,WeatherDisplay:10.37,2013-04-10 18:06:00,
2013-04-10 14:11:00,78.8,62.3,30.15,SSE,160,15.0,15.0,57,0.00,SCT,,0.00,WeatherDisplay:10.37,2013-04-10 18:11:00,
2013-04-10 14:16:00,78.8,62.3,30.15,SSE,160,15.0,15.0,57,0.00,SCT,,0.00,WeatherDisplay:10.37,2013-04-10 18:16:00,
2013-04-10 14:21:00,78.8,62.3,30.14,SSW,200,23.0,23.0,57,0.00,SCT,,0.00,WeatherDisplay:10.37,2013-04-10 18:21:00,
2013-04-10 14:26:00,78.8,62.3,30.14,SSW,200,23.0,23.0,57,0.00,SCT,,0.00,WeatherDisplay:10.37,2013-04-10 18:26:00,
2013-04-10 14:31:00,78.8,62.3,30.14,SSW,200,23.0,23.0,57,0.00,SCT,,0.00,WeatherDisplay:10.37,2013-04-10 18:31:00,
2013-04-10 14:36:00,78.8,62.3,30.14,SSW,200,23.0,23.0,57,0.00,SCT,,0.00,WeatherDisplay:10.37,2013-04-10 18:36:00,
2013-04-10 14:41:00,80.6,62.4,30.14,SSW,200,23.0,23.0,54,0.00,CLR,,0.00,WeatherDisplay:10.37,2013-04-10 18:41:00,
2013-04-10 14:46:00,80.6,62.4,30.14,SSW,200,19.6,19.6,54,0.00,CLR,,0.00,WeatherDisplay:10.37,2013-04-10 18:46:00,
2013-04-10 14:51:00,80.6,62.4,30.14,SSW,200,19.6,19.6,54,0.00,CLR,,0.00,WeatherDisplay:10.37,2013-04-10 18:51:00,
2013-04-10 14:56:00,80.6,62.4,30.14,SSW,200,19.6,19.6,54,0.00,CLR,,0.00,WeatherDisplay:10.37,2013-04-10 18:56:00,
2013-04-10 15:01:00,80.6,62.4,30.14,SSW,200,19.6,19.6,54,0.00,CLR,,0.00,WeatherDisplay:10.37,2013-04-10 19:01:00,
2013-04-10 15:06:00,80.6,62.4,30.14,SSW,200,19.6,19.6,54,0.00,CLR,,0.00,WeatherDisplay:10.37,2013-04-10 19:06:00,
2013-04-10 15:11:00,80.6,62.4,30.13,South,180,20.7,20.7,54,0.00,CLR,,0.00,WeatherDisplay:10.37,2013-04-10 19:11:00,
2013-04-10 15:16:00,80.6,62.4,30.13,South,180,20.7,20.7,54,0.00,CLR,,0.00,WeatherDisplay:10.37,2013-04-10 19:16:00,
2013-04-10 15:21:00,78.8,60.7,30.12,South,170,20.7,20.7,54,0.00,CLR,,0.00,WeatherDisplay:10.37,2013-04-10 19:21:00,
2013-04-10 15:26:00,78.8,60.7,30.12,South,170,12.7,12.7,54,0.00,CLR,,0.00,WeatherDisplay:10.37,2013-04-10 19:26:00,
2013-04-10 15:31:00,78.8,60.7,30.12,South,170,12.7,12.7,54,0.00,CLR,,0.00,WeatherDisplay:10.37,2013-04-10 19:31:00,
2013-04-10 15:36:00,78.8,60.7,30.12,South,170,12.7,12.7,54,0.00,CLR,,0.00,WeatherDisplay:10.37,2013-04-10 19:36:00,
2013-04-10 15:41:00,78.8,60.7,30.11,South,170,24.2,24.2,54,0.00,CLR,,0.00,WeatherDisplay:10.37,2013-04-10 19:41:00,
2013-04-10 15:46:00,78.8,60.7,30.11,South,170,24.2,24.2,54,0.00,CLR,,0.00,WeatherDisplay:10.37,2013-04-10 19:46:00,
2013-04-10 15:51:00,78.8,60.7,30.11,South,170,24.2,24.2,54,0.00,CLR,,0.00,WeatherDisplay:10.37,2013-04-10 19:51:00,
2013-04-10 15:56:00,78.8,60.7,30.11,South,170,24.2,24.2,54,0.00,CLR,,0.00,WeatherDisplay:10.37,2013-04-10 19:56:00,
2013-04-10 16:01:00,78.8,58.6,30.11,South,190,24.2,24.2,50,0.00,CLR,,0.00,WeatherDisplay:10.37,2013-04-10 20:01:00,
2013-04-10 16:06:00,78.8,58.6,30.11,South,190,15.0,15.0,50,0.00,CLR,,0.00,WeatherDisplay:10.37,2013-04-10 20:06:00,
2013-04-10 16:11:00,78.8,58.6,30.11,South,190,15.0,15.0,50,0.00,CLR,,0.00,WeatherDisplay:10.37,2013-04-10 20:11:00,
2013-04-10 16:16:00,78.8,58.6,30.11,South,190,15.0,15.0,50,0.00,CLR,,0.00,WeatherDisplay:10.37,2013-04-10 20:16:00,
2013-04-10 16:21:00,78.8,58.6,30.10,South,190,20.7,20.7,50,0.00,CLR,,0.00,WeatherDisplay:10.37,2013-04-10 20:21:00,
2013-04-10 16:26:00,78.8,58.6,30.10,South,190,20.7,20.7,50,0.00,CLR,,0.00,WeatherDisplay:10.37,2013-04-10 20:26:00,
2013-04-10 16:31:00,78.8,58.6,30.10,South,190,20.7,20.7,50,0.00,CLR,,0.00,WeatherDisplay:10.37,2013-04-10 20:31:00,
2013-04-10 16:36:00,78.8,58.6,30.10,South,190,20.7,20.7,50,0.00,CLR,,0.00,WeatherDisplay:10.37,2013-04-10 20:36:00,
2013-04-10 16:42:00,78.8,58.6,30.10,SSW,200,20.7,20.7,50,0.00,CLR,,0.00,WeatherDisplay:10.37,2013-04-10 20:42:00,
2013-04-10 16:47:00,78.8,58.6,30.10,SSW,200,19.6,19.6,50,0.00,CLR,,0.00,WeatherDisplay:10.37,2013-04-10 20:47:00,
2013-04-10 16:52:00,78.8,58.6,30.10,SSW,200,19.6,19.6,50,0.00,CLR,,0.00,WeatherDisplay:10.37,2013-04-10 20:52:00,
2013-04-10 16:57:00,78.8,58.6,30.10,SSW,200,19.6,19.6,50,0.00,CLR,,0.00,WeatherDisplay:10.37,2013-04-10 20:57:00,
2013-04-10 17:02:00,77.0,58.6,30.09,SSW,200,19.6,19.6,53,0.00,CLR,,0.00,WeatherDisplay:10.37,2013-04-10 21:02:00,
2013-04-10 17:07:00,77.0,58.6,30.09,SSW,200,10.4,10.4,53,0.00,CLR,,0.00,WeatherDisplay:10.37,2013-04-10 21:07:00,
2013-04-10 17:12:00,77.0,58.6,30.09,SSW,200,10.4,10.4,53,0.00,CLR,,0.00,WeatherDisplay:10.37,2013-04-10 21:12:00,
2013-04-10 17:17:00,77.0,58.6,30.09,SSW,200,10.4,10.4,53,0.00,CLR,,0.00,WeatherDisplay:10.37,2013-04-10 21:17:00,
2013-04-10 17:22:00,77.0,60.6,30.08,SSE,160,18.4,18.4,57,0.00,CLR,,0.00,WeatherDisplay:10.37,2013-04-10 21:22:00,
2013-04-10 17:27:00,77.0,60.6,30.08,SSE,160,18.4,18.4,57,0.00,CLR,,0.00,WeatherDisplay:10.37,2013-04-10 21:27:00,
2013-04-10 17:32:00,77.0,60.6,30.08,SSE,160,18.4,18.4,57,0.00,CLR,,0.00,WeatherDisplay:10.37,2013-04-10 21:32:00,
2013-04-10 17:37:00,77.0,60.6,30.08,SSE,160,18.4,18.4,57,0.00,CLR,,0.00,WeatherDisplay:10.37,2013-04-10 21:37:00,
2013-04-10 17:42:00,77.0,60.6,30.08,South,170,18.4,18.4,57,0.00,CLR,,0.00,WeatherDisplay:10.37,2013-04-10 21:42:00,
2013-04-10 17:47:00,77.0,60.6,30.08,South,170,11.5,11.5,57,0.00,CLR,,0.00,WeatherDisplay:10.37,2013-04-10 21:47:00,
2013-04-10 17:52:00,77.0,60.6,30.08,South,170,11.5,11.5,57,0.00,CLR,,0.00,WeatherDisplay:10.37,2013-04-10 21:52:00,
2013-04-10 17:58:00,77.0,60.6,30.08,South,170,11.5,11.5,57,0.00,CLR,,0.00,WeatherDisplay:10.37,2013-04-10 21:58:00,
2013-04-10 18:03:00,75.2,58.9,30.09,South,170,9.2,9.2,57,0.00,CLR,,0.00,WeatherDisplay:10.37,2013-04-10 22:03:00,
2013-04-10 18:08:00,75.2,58.9,30.09,South,170,9.2,9.2,57,0.00,CLR,,0.00,WeatherDisplay:10.37,2013-04-10 22:08:00,
2013-04-10 18:13:00,75.2,58.9,30.09,South,170,9.2,9.2,57,0.00,CLR,,0.00,WeatherDisplay:10.37,2013-04-10 22:13:00,
2013-04-10 18:18:00,75.2,58.9,30.09,South,170,9.2,9.2,57,0.00,CLR,,0.00,WeatherDisplay:10.37,2013-04-10 22:18:00,
2013-04-10 18:23:00,73.4,60.5,30.08,South,180,18.4,18.4,64,0.00,CLR,,0.00,WeatherDisplay:10.37,2013-04-10 22:23:00,
2013-04-10 18:28:00,73.4,60.5,30.08,South,180,18.4,18.4,64,0.00,CLR,,0.00,WeatherDisplay:10.37,2013-04-10 22:28:00,
2013-04-10 18:33:00,73.4,60.5,30.08,South,180,18.4,18.4,64,0.00,CLR,,0.00,WeatherDisplay:10.37,2013-04-10 22:33:00,
2013-04-10 18:38:00,73.4,60.5,30.08,South,180,18.4,18.4,64,0.00,CLR,,0.00,WeatherDisplay:10.37,2013-04-10 22:38:00,
2013-04-10 18:43:00,73.4,60.5,30.08,South,180,18.4,18.4,64,0.00,CLR,,0.00,WeatherDisplay:10.37,2013-04-10 22:43:00,
2013-04-10 18:48:00,73.4,60.5,30.08,South,180,18.4,18.4,64,0.00,CLR,,0.00,WeatherDisplay:10.37,2013-04-10 22:48:00,
2013-04-10 18:53:00,73.4,60.5,30.08,South,180,18.4,18.4,64,0.00,CLR,,0.00,WeatherDisplay:10.37,2013-04-10 22:53:00,
2013-04-10 18:58:00,73.4,60.5,30.08,South,180,18.4,18.4,64,0.00,CLR,,0.00,WeatherDisplay:10.37,2013-04-10 22:58:00,
2013-04-10 19:03:00,71.6,60.5,30.08,South,190,8.1,8.1,68,0.00,CLR,,0.00,WeatherDisplay:10.37,2013-04-10 23:03:00,
2013-04-10 19:08:00,71.6,60.5,30.08,South,190,8.1,8.1,68,0.00,CLR,,0.00,WeatherDisplay:10.37,2013-04-10 23:08:00,
2013-04-10 19:13:00,71.6,60.5,30.08,South,190,8.1,8.1,68,0.00,CLR,,0.00,WeatherDisplay:10.37,2013-04-10 23:13:00,
2013-04-10 19:18:00,71.6,60.5,30.08,South,190,8.1,8.1,68,0.00,CLR,,0.00,WeatherDisplay:10.37,2013-04-10 23:18:00,
2013-04-10 19:23:00,71.6,60.5,30.08,South,190,18.4,18.4,68,0.00,CLR,,0.00,WeatherDisplay:10.37,2013-04-10 23:23:00,
2013-04-10 19:28:00,71.6,60.5,30.08,South,190,18.4,18.4,68,0.00,CLR,,0.00,WeatherDisplay:10.37,2013-04-10 23:28:00,
2013-04-10 19:33:00,71.6,60.5,30.08,South,190,18.4,18.4,68,0.00,CLR,,0.00,WeatherDisplay:10.37,2013-04-10 23:33:00,
2013-04-10 19:38:00,71.6,60.5,30.08,South,190,18.4,18.4,68,0.00,CLR,,0.00,WeatherDisplay:10.37,2013-04-10 23:38:00,
2013-04-10 19:43:00,69.8,60.8,30.07,South,190,6.9,6.9,73,0.00,CLR,,0.00,WeatherDisplay:10.37,2013-04-10 23:43:00,
2013-04-10 19:48:00,69.8,60.8,30.07,South,190,6.9,6.9,73,0.00,CLR,,0.00,WeatherDisplay:10.37,2013-04-10 23:48:00,
2013-04-10 19:53:00,69.8,60.8,30.07,South,190,6.9,6.9,73,0.00,CLR,,0.00,WeatherDisplay:10.37,2013-04-10 23:53:00,
2013-04-10 19:58:00,69.8,60.8,30.07,South,190,6.9,6.9,73,0.00,CLR,,0.00,WeatherDisplay:10.37,2013-04-10 23:58:00,
2013-04-10 20:03:00,68.0,60.5,30.07,South,180,5.8,5.8,77,0.00,CLR,,0.00,WeatherDisplay:10.37,2013-04-11 00:03:00,
2013-04-10 20:08:00,68.0,60.5,30.07,South,180,5.8,5.8,77,0.00,CLR,,0.00,WeatherDisplay:10.37,2013-04-11 00:08:00,
2013-04-10 20:13:00,68.0,60.5,30.07,South,180,5.8,5.8,77,0.00,CLR,,0.00,WeatherDisplay:10.37,2013-04-11 00:13:00,
2013-04-10 20:18:00,68.0,60.5,30.07,South,180,5.8,5.8,77,0.00,CLR,,0.00,WeatherDisplay:10.37,2013-04-11 00:18:00,
2013-04-10 20:23:00,68.0,62.3,30.07,South,190,5.8,5.8,82,0.00,CLR,,0.00,WeatherDisplay:10.37,2013-04-11 00:23:00,
2013-04-10 20:28:00,68.0,62.3,30.07,South,190,5.8,5.8,82,0.00,CLR,,0.00,WeatherDisplay:10.37,2013-04-11 00:28:00,
2013-04-10 20:33:00,68.0,62.3,30.07,South,190,5.8,5.8,82,0.00,CLR,,0.00,WeatherDisplay:10.37,2013-04-11 00:33:00,
2013-04-10 20:38:00,68.0,62.3,30.07,South,190,5.8,5.8,82,0.00,CLR,,0.00,WeatherDisplay:10.37,2013-04-11 00:38:00,
2013-04-10 20:43:00,66.2,62.5,30.07,South,190,4.6,4.6,88,0.00,CLR,,0.00,WeatherDisplay:10.37,2013-04-11 00:43:00,
2013-04-10 20:48:00,66.2,62.5,30.07,South,190,4.6,4.6,88,0.00,CLR,,0.00,WeatherDisplay:10.37,2013-04-11 00:48:00,
2013-04-10 20:53:00,66.2,62.5,30.07,South,190,4.6,4.6,88,0.00,CLR,,0.00,WeatherDisplay:10.37,2013-04-11 00:53:00,
2013-04-10 20:58:00,66.2,62.5,30.07,South,190,4.6,4.6,88,0.00,CLR,,0.00,WeatherDisplay:10.37,2013-04-11 00:58:00,
2013-04-10 21:03:00,64.4,62.3,30.07,SSW,200,4.6,4.6,93,0.00,CLR,,0.00,WeatherDisplay:10.37,2013-04-11 01:03:00,
2013-04-10 21:08:00,64.4,62.3,30.07,SSW,200,4.6,4.6,93,0.00,CLR,,0.00,WeatherDisplay:10.37,2013-04-11 01:08:00,
2013-04-10 21:13:00,64.4,62.3,30.07,SSW,200,4.6,4.6,93,0.00,CLR,,0.00,WeatherDisplay:10.37,2013-04-11 01:13:00,
2013-04-10 21:18:00,64.4,62.3,30.07,SSW,200,4.6,4.6,93,0.00,CLR,,0.00,WeatherDisplay:10.37,2013-04-11 01:18:00,
2013-04-10 21:23:00,64.4,62.3,30.07,SSW,200,4.6,4.6,93,0.00,CLR,,0.00,WeatherDisplay:10.37,2013-04-11 01:23:00,
2013-04-10 21:28:00,64.4,62.3,30.07,SSW,200,4.6,4.6,93,0.00,CLR,,0.00,WeatherDisplay:10.37,2013-04-11 01:28:00,
2013-04-10 21:33:00,64.4,62.3,30.08,South,190,3.5,3.5,93,0.00,CLR,,0.00,WeatherDisplay:10.37,2013-04-11 01:33:00,
2013-04-10 21:38:00,64.4,62.3,30.08,South,190,3.5,3.5,93,0.00,CLR,,0.00,WeatherDisplay:10.37,2013-04-11 01:38:00,
2013-04-10 21:43:00,62.6,62.6,30.08,SSW,200,4.6,4.6,100,0.00,CLR,,0.00,WeatherDisplay:10.37,2013-04-11 01:43:00,
2013-04-10 21:48:00,62.6,62.6,30.08,SSW,200,4.6,4.6,100,0.00,CLR,,0.00,WeatherDisplay:10.37,2013-04-11 01:48:00,
2013-04-10 21:53:00,62.6,62.6,30.08,SSW,200,4.6,4.6,100,0.00,CLR,,0.00,WeatherDisplay:10.37,2013-04-11 01:53:00,
2013-04-10 21:58:00,62.6,62.6,30.08,SSW,200,4.6,4.6,100,0.00,CLR,,0.00,WeatherDisplay:10.37,2013-04-11 01:58:00,
2013-04-10 22:03:00,62.6,62.6,30.08,SSW,200,4.6,4.6,100,0.00,CLR,,0.00,WeatherDisplay:10.37,2013-04-11 02:03:00,
2013-04-10 22:08:00,62.6,62.6,30.08,SSW,200,4.6,4.6,100,0.00,CLR,,0.00,WeatherDisplay:10.37,2013-04-11 02:08:00,
2013-04-10 22:13:00,62.6,62.6,30.08,SSW,200,3.5,3.5,100,0.00,CLR,,0.00,WeatherDisplay:10.37,2013-04-11 02:13:00,
2013-04-10 22:18:00,62.6,62.6,30.08,SSW,200,3.5,3.5,100,0.00,CLR,,0.00,WeatherDisplay:10.37,2013-04-11 02:18:00,
2013-04-10 22:23:00,62.6,62.6,30.08,SSW,200,0.0,0.0,100,0.00,CLR,,0.00,WeatherDisplay:10.37,2013-04-11 02:23:00,
2013-04-10 22:28:00,62.6,62.6,30.08,SSW,200,0.0,0.0,100,0.00,CLR,,0.00,WeatherDisplay:10.37,2013-04-11 02:28:00,
2013-04-10 22:33:00,62.6,62.6,30.08,SSW,200,0.0,0.0,100,0.00,CLR,,0.00,WeatherDisplay:10.37,2013-04-11 02:33:00,
2013-04-10 22:38:00,62.6,62.6,30.08,SSW,200,0.0,0.0,100,0.00,CLR,,0.00,WeatherDisplay:10.37,2013-04-11 02:38:00,
2013-04-10 22:43:00,60.8,60.8,30.08,SSW,200,0.0,0.0,100,0.00,CLR,,0.00,WeatherDisplay:10.37,2013-04-11 02:43:00,
2013-04-10 22:48:00,60.8,60.8,30.08,SSW,200,0.0,0.0,100,0.00,CLR,,0.00,WeatherDisplay:10.37,2013-04-11 02:48:00,
2013-04-10 22:53:00,60.8,60.8,30.08,SSW,200,0.0,0.0,100,0.00,CLR,,0.00,WeatherDisplay:10.37,2013-04-11 02:53:00,
2013-04-10 22:58:00,60.8,60.8,30.08,SSW,200,0.0,0.0,100,0.00,CLR,,0.00,WeatherDisplay:10.37,2013-04-11 02:58:00,
2013-04-10 23:03:00,60.8,60.8,30.07,SSW,200,0.0,0.0,100,0.00,CLR,,0.00,WeatherDisplay:10.37,2013-04-11 03:03:00,
2013-04-10 23:08:00,60.8,60.8,30.07,SSW,200,0.0,0.0,100,0.00,CLR,,0.00,WeatherDisplay:10.37,2013-04-11 03:08:00,
2013-04-10 23:13:00,60.8,60.8,30.07,SSW,200,0.0,0.0,100,0.00,CLR,,0.00,WeatherDisplay:10.37,2013-04-11 03:13:00,
2013-04-10 23:18:00,60.8,60.8,30.07,SSW,200,0.0,0.0,100,0.00,CLR,,0.00,WeatherDisplay:10.37,2013-04-11 03:18:00,
2013-04-10 23:23:00,59.0,59.0,30.06,South,180,3.5,3.5,100,0.00,CLR,,0.00,WeatherDisplay:10.37,2013-04-11 03:23:00,
2013-04-10 23:28:00,59.0,59.0,30.06,South,180,3.5,3.5,100,0.00,CLR,,0.00,WeatherDisplay:10.37,2013-04-11 03:28:00,
2013-04-10 23:33:00,59.0,59.0,30.06,South,180,3.5,3.5,100,0.00,CLR,,0.00,WeatherDisplay:10.37,2013-04-11 03:33:00,
2013-04-10 23:38:00,59.0,59.0,30.06,South,180,3.5,3.5,100,0.00,CLR,,0.00,WeatherDisplay:10.37,2013-04-11 03:38:00,
2013-04-10 23:43:00,60.8,60.8,30.06,South,190,3.5,3.5,100,0.00,CLR,,0.00,WeatherDisplay:10.37,2013-04-11 03:43:00,
2013-04-10 23:48:00,60.8,60.8,30.06,South,190,3.5,3.5,100,0.00,CLR,,0.00,WeatherDisplay:10.37,2013-04-11 03:48:00,
2013-04-10 23:53:00,60.8,60.8,30.06,South,190,3.5,3.5,100,0.00,CLR,,0.00,WeatherDisplay:10.37,2013-04-11 03:53:00,
2013-04-10 23:58:00,60.8,60.8,30.06,South,190,3.5,3.5,100,0.00,CLR,,0.00,WeatherDisplay:10.37,2013-04-11 03:58:00,